Hourly Data Report for October 16, 2016

All times are specified in Local Standard Time (LST). Add 1 hour to adjust for Daylight Saving Time where and when it is observed.

RANKIN INLET A
NUNAVUT

62°48'38.000" N
92°06'53.000" W
32.30 m
2303405
71083
YRT

Download Data

Hourly Data (October 2016)
Hourly Data Report for October 16, 2016
Temp Definition
°C
Dew Point Temp Definition
°C
Rel Hum Definition
%
Wind Dir Definition
10's deg

Wind Spd Definition
km/h
Visibility Definition
km
Stn Press Definition
kPa
Hmdx Definition


Wind Chill Definition


Weather Definition


TIME
00:00 Legend Double Dagger -9.2 -10.8 88 1 23 9.7 101.28   -17 Snow
01:00 Legend Double Dagger -9.1 -10.7 88 2 24 9.7 101.28   -17 Snow
02:00 Legend Double Dagger -8.5 -10.1 88 2 18 9.7 101.32   -16 Snow
03:00 Legend Double Dagger -8.5 -10.0 89 1 20 16.1 101.35   -16 Snow
04:00 Legend Double Dagger -9.0 -10.2 91 1 18 3.2 101.38   -16 Snow
05:00 Legend Double Dagger -9.2 -10.7 89 1 20 16.1 101.40   -17 Snow
06:00 Legend Double Dagger -8.4 -9.9 89 3 16 16.1 101.40   -15 Snow
07:00 Legend Double Dagger -7.8 -9.3 89 4 14 16.1 101.43   -14 Snow
08:00 Legend Double Dagger -6.8 -8.0 91 5 12 16.1 101.43   -12 Snow
09:00 Legend Double Dagger -6.4 -7.6 91 3 11 16.1 101.46   -11 Snow
10:00 Legend Double Dagger -5.6 -6.8 91 2 8 16.1 101.48   -9 Snow
11:00 Legend Double Dagger -5.2 -6.6 90 3 9 6.4 101.50   -9 Snow
12:00 Legend Double Dagger -5.1 -6.4 91 5 10 16.1 101.52   -9 Snow
13:00 Legend Double Dagger -5.0 -6.3 91 3 9 16.1 101.52   -9 Snow
14:00 Legend Double Dagger -4.8 -6.2 90 3 9 16.1 101.53   -9 Snow
15:00 Legend Double Dagger -4.5 -5.8 91 36 9 16.1 101.51   -8 Snow
16:00 Legend Double Dagger -4.7 -5.5 94 36 10 12.9 101.53   -9 Snow
17:00 Legend Double Dagger -5.0 -5.5 96 1 10 8.1 101.50   -9 Snow,Fog
18:00 Legend Double Dagger -4.8 -5.3 96 35 6 4.8 101.47   -8 Freezing Drizzle
19:00 Legend Double Dagger -5.5 -6.2 95 34 9 16.1 101.51   -10 Snow
20:00 Legend Double Dagger -5.2 -5.7 96 27 17 8.1 101.55   -11 Freezing Drizzle,Snow,Fog
21:00 Legend Double Dagger -6.7 -7.5 94 27 18 4.8 101.61   -13 Freezing Drizzle,Snow,Fog
22:00 Legend Double Dagger -7.5 -8.6 92 28 15 16.1 101.65   -14 Snow,Fog
23:00 Legend Double Dagger -8.1 -9.2 92 26 14 16.1 101.67   -14 Snow

Notes on Data Quality.

Legend

  • E = Estimated
  • M = Missing
  • NA = Not Available
  • ‡ = Partner data that is not subject to review by the National Climate Archives
Date modified: